This demonstration page uses our WeatherBlox Daily Observations layout. Learn more.

Left ArrowRight Arrow

39.01783, -85.05884

Hourly Observations for March 6, 2015

Temp ( °F °C ) Dew Point ( °F °C ) Humidity (%) Winds ( mph kmh ) Pressure ( in mb ) Visibility ( mi km ) Precip ( " mm )
12:52 am 00:52 Clear 10 -12.2 3 -16.1 73 73 Calm 30.57 1035 10 16 0.00 0.00
1:52 am 01:52 Clear 8 -13.3 3 -16.1 80 80 Calm 30.57 1035 10 16 0.00 0.00
2:52 am 02:52 Clear 4 -15.6 1 -17.2 88 88 Calm 30.58 1035 8 13 0.00 0.00
3:52 am 03:52 Clear with Mist and Fog 3 -16.1 0 -17.8 87 87 Calm 30.57 1035 6 10 0.00 0.00
4:52 am 04:52 Clear with Mist and Fog 4 -15.6 0 -17.8 83 83 Calm 30.56 1035 6 10 0.00 0.00
5:52 am 05:52 Clear 1 -17.2 -2 -18.9 87 87 Calm 30.58 1036 7 11 0.00 0.00
6:52 am 06:52 Clear with Patchy Fog 3 -16.1 -2 -18.9 79 79 Calm 30.58 1035 5 8 0.00 0.00
7:52 am 07:52 Sunny with Mist and Fog 4 -15.6 1 -17.2 88 88 Calm 30.59 1036 6 10 0.00 0.00
8:52 am 08:52 Sunny 8 -13.3 6 -14.4 92 92 S 5 7 30.59 1036 8 13 0.00 0.00
9:52 am 09:52 Partly Cloudy 16 -8.9 6 -14.4 65 65 S 6 9 30.60 1036 10 16 0.00 0.00
10:52 am 10:52 Mostly Cloudy 19 -7.2 6 -14.4 57 57 S 9 15 30.58 1036 10 16 0.00 0.00
11:52 am 11:52 Partly Cloudy 20 -6.7 7 -13.9 57 57 S 8 13 30.58 1036 10 16 0.00 0.00
12:52 pm 12:52 Partly Cloudy 23 -5 10 -12.2 57 57 S 10 17 30.55 1035 10 16 0.00 0.00
1:52 pm 13:52 Mostly Sunny 25 -4 10 -12 54 54 S 10 17 30.53 1034 10 16 0.00 0.00
2:52 pm 14:52 Sunny 25 -4 10 -12 54 54 S 13 20 30.53 1034 10 16 0.00 0.00
3:52 pm 15:52 Mostly Sunny 26 -3.3 12 -11.1 55 55 S 14 22 30.45 1031 10 16 0.00 0.00
4:52 pm 16:52 Mostly Sunny 27 -2.8 9 -12.8 46 46 SSW 10 17 30.43 1031 10 16 0.00 0.00
5:52 pm 17:52 Mostly Sunny 27 -2.8 8 -13.3 45 45 SSW 13 20 30.42 1030 10 16 0.00 0.00
6:52 pm 18:52 Clear 25 -3.9 9 -12.8 50 50 S 7 11 30.42 1030 10 16 0.00 0.00
7:52 pm 19:52 Clear 23 -5 10 -12.2 57 57 S 9 15 30.41 1030 10 16 0.00 0.00
8:52 pm 20:52 Clear 23 -5 11 -11.7 60 60 S 9 15 30.40 1030 10 16 0.00 0.00
9:52 pm 21:52 Clear 22 -5.6 12 -11.1 66 66 S 10 17 30.40 1029 10 16 0.00 0.00
10:52 pm 22:52 Clear 22 -5.6 13 -10.6 68 68 SSW 10 17 30.39 1029 10 16 0.00 0.00
11:52 pm 23:52 Clear 22 -5.6 13 -10.6 68 68 SSW 9 15 30.38 1029 10 16 0.00 0.00

Powered by AerisWeather